| time (UTC) | temp F | wind direction | speed MPH | gust MPH | rain 1hr in | rain 24hr in | rain mn in | humidity % | barometer mb |
| 20260505235047 | 52 | 87 | 1.0 | 6.0 | 0.00 | 0.00 | 0.00 | 57 | 1012.5 |
| 20260505234549 | 52 | 98 | 1.0 | 7.0 | 0.00 | 0.00 | 0.00 | 57 | 1012.5 |
| 20260505234046 | 52 | 140 | 3.0 | 7.0 | 0.00 | 0.00 | 0.00 | 56 | 1012.5 |
| 20260505233546 | 53 | 151 | 2.0 | 6.0 | 0.00 | 0.00 | 0.00 | 56 | 1012.5 |
| 20260505233059 | 53 | 204 | 1.0 | 5.0 | 0.00 | 0.00 | 0.00 | 54 | 1012.5 |
| 20260505232546 | 53 | 138 | 0.0 | 3.0 | 0.00 | 0.00 | 0.00 | 52 | 1012.4 |
| 20260505232047 | 54 | 133 | 0.0 | 5.0 | 0.00 | 0.00 | 0.00 | 51 | 1012.3 |
| 20260505231552 | 54 | 0 | 0.0 | 5.0 | 0.00 | 0.00 | 0.00 | 51 | 1012.3 |
| 20260505231045 | 54 | 14 | 1.0 | 2.0 | 0.00 | 0.00 | 0.00 | 51 | 1012.2 |
| 20260505230544 | 54 | 0 | 0.0 | 2.0 | 0.00 | 0.00 | 0.00 | 51 | 1012.3 |
| 20260505230051 | 53 | 0 | 0.0 | 2.0 | 0.00 | 0.00 | 0.00 | 52 | 1012.3 |
| 20260505225547 | 53 | 308 | 0.0 | 3.0 | 0.00 | 0.00 | 0.00 | 52 | 1012.3 |
| 20260505225045 | 53 | 0 | 0.0 | 3.0 | 0.00 | 0.00 | 0.00 | 52 | 1012.3 |
| 20260505224551 | 53 | 312 | 1.0 | 3.0 | 0.00 | 0.00 | 0.00 | 52 | 1012.3 |
| 20260505224049 | 53 | 309 | 1.0 | 3.0 | 0.00 | 0.00 | 0.00 | 52 | 1012.3 |
| 20260505223546 | 54 | 336 | 0.0 | 4.0 | 0.00 | 0.00 | 0.00 | 52 | 1012.3 |
| 20260505223052 | 54 | 313 | 1.0 | 4.0 | 0.00 | 0.00 | 0.00 | 51 | 1012.2 |
| 20260505222545 | 54 | 293 | 1.0 | 5.0 | 0.00 | 0.00 | 0.00 | 51 | 1012.1 |
| 20260505222045 | 54 | 341 | 1.0 | 5.0 | 0.00 | 0.00 | 0.00 | 51 | 1012.2 |
| 20260505221601 | 54 | 341 | 1.0 | 4.0 | 0.00 | 0.00 | 0.00 | 50 | 1012.2 |
| 20260505221047 | 54 | 305 | 1.0 | 4.0 | 0.00 | 0.00 | 0.00 | 50 | 1012.3 |
| 20260505220544 | 54 | 0 | 1.0 | 4.0 | 0.00 | 0.00 | 0.00 | 50 | 1012.3 |
| 20260505220057 | 54 | 328 | 0.0 | 4.0 | 0.00 | 0.00 | 0.00 | 50 | 1012.3 |
| 20260505215545 | 54 | 328 | 0.0 | 4.0 | 0.00 | 0.00 | 0.00 | 50 | 1012.4 |
| 20260505215044 | 54 | 359 | 1.0 | 4.0 | 0.00 | 0.00 | 0.00 | 49 | 1012.4 |
| 20260505214548 | 54 | 308 | 0.0 | 4.0 | 0.00 | 0.00 | 0.00 | 49 | 1012.4 |
| 20260505214045 | 54 | 311 | 0.0 | 7.0 | 0.00 | 0.00 | 0.00 | 49 | 1012.4 |
| 20260505213544 | 55 | 336 | 1.0 | 7.0 | 0.00 | 0.00 | 0.00 | 48 | 1012.4 |
| 20260505213051 | 55 | 300 | 1.0 | 5.0 | 0.00 | 0.00 | 0.00 | 47 | 1012.5 |
| 20260505212544 | 55 | 301 | 1.0 | 6.0 | 0.00 | 0.00 | 0.00 | 47 | 1012.5 |
| 20260505212044 | 55 | 274 | 2.0 | 6.0 | 0.00 | 0.00 | 0.00 | 46 | 1012.4 |
| 20260505211549 | 55 | 276 | 1.0 | 4.0 | 0.00 | 0.00 | 0.00 | 45 | 1012.5 |
| 20260505211042 | 56 | 0 | 0.0 | 3.0 | 0.00 | 0.00 | 0.00 | 45 | 1012.5 |
| 20260505210543 | 56 | 312 | 0.0 | 4.0 | 0.00 | 0.00 | 0.00 | 45 | 1012.4 |
| 20260505210051 | 56 | 0 | 1.0 | 4.0 | 0.00 | 0.00 | 0.00 | 44 | 1012.4 |
| 20260505205545 | 56 | 319 | 0.0 | 4.0 | 0.00 | 0.00 | 0.00 | 44 | 1012.4 |
| 20260505205045 | 56 | 299 | 1.0 | 4.0 | 0.00 | 0.00 | 0.00 | 44 | 1012.4 |
| 20260505204553 | 56 | 284 | 1.0 | 4.0 | 0.00 | 0.00 | 0.00 | 43 | 1012.4 |
| 20260505204044 | 56 | 326 | 1.0 | 3.0 | 0.00 | 0.00 | 0.00 | 43 | 1012.4 |
| 20260505203544 | 56 | 280 | 1.0 | 4.0 | 0.00 | 0.00 | 0.00 | 43 | 1012.4 |
| 20260505203056 | 57 | 0 | 1.0 | 4.0 | 0.00 | 0.00 | 0.00 | 42 | 1012.3 |
| 20260505202544 | 57 | 311 | 0.0 | 5.0 | 0.00 | 0.00 | 0.00 | 41 | 1012.4 |
| 20260505202045 | 57 | 305 | 1.0 | 7.0 | 0.00 | 0.00 | 0.00 | 41 | 1012.3 |
| 20260505201550 | 57 | 5 | 1.0 | 7.0 | 0.00 | 0.00 | 0.00 | 41 | 1012.2 |
| 20260505201044 | 57 | 309 | 1.0 | 4.0 | 0.00 | 0.00 | 0.00 | 41 | 1012.2 |
| 20260505200544 | 58 | 287 | 1.0 | 4.0 | 0.00 | 0.00 | 0.00 | 41 | 1012.2 |
| 20260505200051 | 58 | 0 | 1.0 | 3.0 | 0.00 | 0.00 | 0.00 | 40 | 1012.1 |
| 20260505195544 | 58 | 0 | 1.0 | 6.0 | 0.00 | 0.00 | 0.00 | 40 | 1012.1 |
| 20260505195045 | 58 | 0 | 1.0 | 6.0 | 0.00 | 0.00 | 0.00 | 40 | 1012.0 |
| 20260505194552 | 58 | 301 | 2.0 | 9.0 | 0.00 | 0.00 | 0.00 | 39 | 1012.0 |
| 20260505194046 | 58 | 320 | 3.0 | 9.0 | 0.00 | 0.00 | 0.00 | 39 | 1011.9 |
| 20260505193544 | 58 | 43 | 4.0 | 8.0 | 0.00 | 0.00 | 0.00 | 39 | 1011.8 |
| 20260505193114 | 58 | 309 | 2.0 | 10.0 | 0.00 | 0.00 | 0.00 | 39 | 1011.9 |
| 20260505192541 | 59 | 329 | 2.0 | 10.0 | 0.00 | 0.00 | 0.00 | 39 | 1011.8 |
| 20260505192047 | 59 | 312 | 3.0 | 9.0 | 0.00 | 0.00 | 0.00 | 38 | 1011.7 |
| 20260505191559 | 59 | 327 | 4.0 | 12.0 | 0.00 | 0.00 | 0.00 | 37 | 1011.8 |
| 20260505191045 | 59 | 270 | 5.0 | 12.0 | 0.00 | 0.00 | 0.00 | 36 | 1011.7 |
| 20260505190545 | 60 | 243 | 4.0 | 10.0 | 0.00 | 0.00 | 0.00 | 35 | 1011.7 |
| 20260505190051 | 60 | 3 | 2.0 | 14.0 | 0.00 | 0.00 | 0.00 | 34 | 1011.5 |
| 20260505185547 | 60 | 346 | 3.0 | 14.0 | 0.00 | 0.00 | 0.00 | 34 | 1011.5 |
| 20260505185045 | 60 | 286 | 6.0 | 14.0 | 0.00 | 0.00 | 0.00 | 33 | 1011.5 |
| 20260505184554 | 60 | 322 | 5.0 | 13.0 | 0.00 | 0.00 | 0.00 | 34 | 1011.5 |
| 20260505184045 | 60 | 28 | 5.0 | 13.0 | 0.00 | 0.00 | 0.00 | 34 | 1011.4 |
| 20260505183546 | 61 | 351 | 6.0 | 13.0 | 0.00 | 0.00 | 0.00 | 34 | 1011.3 |
| 20260505183052 | 61 | 341 | 5.0 | 12.0 | 0.00 | 0.00 | 0.00 | 34 | 1011.3 |
| 20260505182545 | 61 | 209 | 1.0 | 7.0 | 0.00 | 0.00 | 0.00 | 34 | 1011.2 |
| 20260505182046 | 61 | 311 | 3.0 | 12.0 | 0.00 | 0.00 | 0.00 | 34 | 1011.3 |
| 20260505181556 | 61 | 303 | 4.0 | 12.0 | 0.00 | 0.00 | 0.00 | 34 | 1011.3 |
| 20260505181046 | 61 | 275 | 3.0 | 12.0 | 0.00 | 0.00 | 0.00 | 34 | 1011.4 |
| 20260505180545 | 61 | 334 | 4.0 | 12.0 | 0.00 | 0.00 | 0.00 | 34 | 1011.4 |
| 20260505180055 | 62 | 351 | 5.0 | 12.0 | 0.00 | 0.00 | 0.00 | 33 | 1011.3 |
| 20260505175545 | 63 | 322 | 2.0 | 14.0 | 0.00 | 0.00 | 0.00 | 33 | 1011.2 |
| 20260505175045 | 63 | 330 | 2.0 | 14.0 | 0.00 | 0.00 | 0.00 | 33 | 1011.2 |
| 20260505174552 | 63 | 322 | 6.0 | 14.0 | 0.00 | 0.00 | 0.00 | 32 | 1011.2 |
| 20260505174049 | 63 | 247 | 4.0 | 12.0 | 0.00 | 0.00 | 0.00 | 33 | 1011.2 |
| 20260505173547 | 62 | 332 | 3.0 | 12.0 | 0.00 | 0.00 | 0.00 | 33 | 1011.2 |
| 20260505173051 | 62 | 313 | 3.0 | 12.0 | 0.00 | 0.00 | 0.00 | 33 | 1011.2 |
| 20260505172545 | 62 | 307 | 1.0 | 9.0 | 0.00 | 0.00 | 0.00 | 34 | 1011.1 |
| 20260505172045 | 62 | 337 | 4.0 | 9.0 | 0.00 | 0.00 | 0.00 | 33 | 1011.2 |
| 20260505171551 | 62 | 291 | 3.0 | 8.0 | 0.00 | 0.00 | 0.00 | 33 | 1011.2 |
| 20260505171045 | 63 | 289 | 1.0 | 8.0 | 0.00 | 0.00 | 0.00 | 33 | 1011.1 |
| 20260505170545 | 63 | 239 | 2.0 | 9.0 | 0.00 | 0.00 | 0.00 | 33 | 1011.2 |
| 20260505170053 | 63 | 0 | 2.0 | 10.0 | 0.00 | 0.00 | 0.00 | 33 | 1011.2 |
| 20260505165546 | 63 | 312 | 3.0 | 11.0 | 0.00 | 0.00 | 0.00 | 32 | 1011.3 |
| 20260505165046 | 64 | 166 | 3.0 | 11.0 | 0.00 | 0.00 | 0.00 | 31 | 1011.2 |
| 20260505164551 | 64 | 224 | 5.0 | 11.0 | 0.00 | 0.00 | 0.00 | 31 | 1011.2 |
| 20260505164046 | 64 | 351 | 3.0 | 10.0 | 0.00 | 0.00 | 0.00 | 31 | 1011.2 |
| 20260505163546 | 65 | 296 | 1.0 | 11.0 | 0.00 | 0.00 | 0.00 | 31 | 1011.2 |
| 20260505163052 | 64 | 284 | 5.0 | 11.0 | 0.00 | 0.00 | 0.00 | 31 | 1011.3 |
| 20260505162545 | 65 | 338 | 3.0 | 12.0 | 0.00 | 0.00 | 0.00 | 31 | 1011.1 |
| 20260505162045 | 65 | 351 | 2.0 | 15.0 | 0.00 | 0.00 | 0.00 | 31 | 1011.0 |
| 20260505161549 | 65 | 281 | 2.0 | 15.0 | 0.00 | 0.00 | 0.00 | 31 | 1011.2 |
| 20260505161041 | 64 | 330 | 7.0 | 12.0 | 0.00 | 0.00 | 0.00 | 31 | 1011.0 |
| 20260505160542 | 65 | 213 | 2.0 | 13.0 | 0.00 | 0.00 | 0.00 | 31 | 1011.0 |
| 20260505153101 | 65 | 332 | 3.0 | 13.0 | 0.00 | 0.00 | 0.00 | 29 | 1011.2 |
| 20260505152544 | 65 | 282 | 4.0 | 14.0 | 0.00 | 0.00 | 0.00 | 30 | 1011.2 |
| 20260505152042 | 65 | 346 | 4.0 | 14.0 | 0.00 | 0.00 | 0.00 | 30 | 1011.2 |
| 20260505151547 | 65 | 341 | 3.0 | 18.0 | 0.00 | 0.00 | 0.00 | 31 | 1011.1 |
| 20260505151046 | 65 | 296 | 7.0 | 18.0 | 0.00 | 0.00 | 0.00 | 31 | 1011.2 |
| 20260505150543 | 65 | 295 | 4.0 | 12.0 | 0.00 | 0.00 | 0.00 | 32 | 1011.2 |
| 20260505140542 | 65 | 5 | 2.0 | 11.0 | 0.00 | 0.00 | 0.00 | 31 | 1011.4 |
| 20260505124602 | 64 | 247 | 2.0 | 11.0 | 0.00 | 0.00 | 0.00 | 31 | 1011.8 |
| 20260505124041 | 65 | 230 | 4.0 | 11.0 | 0.00 | 0.00 | 0.00 | 31 | 1011.9 |
| 20260505123546 | 65 | 190 | 3.0 | 9.0 | 0.00 | 0.00 | 0.00 | 32 | 1011.9 |
| 20260505123100 | 64 | 336 | 2.0 | 12.0 | 0.00 | 0.00 | 0.00 | 33 | 1011.9 |
| 20260505122545 | 64 | 227 | 4.0 | 12.0 | 0.00 | 0.00 | 0.00 | 33 | 1011.9 |
| 20260505122045 | 63 | 16 | 3.0 | 10.0 | 0.00 | 0.00 | 0.00 | 33 | 1012.0 |
| 20260505121551 | 63 | 0 | 2.0 | 13.0 | 0.00 | 0.00 | 0.00 | 35 | 1012.0 |
| 20260505121049 | 63 | 323 | 3.0 | 13.0 | 0.00 | 0.00 | 0.00 | 35 | 1012.0 |
| 20260505120544 | 63 | 222 | 2.0 | 12.0 | 0.00 | 0.00 | 0.00 | 36 | 1012.0 |
| 20260505120056 | 63 | 272 | 2.0 | 10.0 | 0.00 | 0.00 | 0.00 | 35 | 1012.0 |
| 20260505115544 | 63 | 310 | 2.0 | 11.0 | 0.00 | 0.00 | 0.00 | 36 | 1012.0 |
| 20260505115042 | 63 | 251 | 2.0 | 12.0 | 0.00 | 0.00 | 0.00 | 36 | 1012.1 |
| 20260505114559 | 63 | 194 | 3.0 | 12.0 | 0.00 | 0.00 | 0.00 | 37 | 1012.0 |
| 20260505114041 | 62 | 328 | 3.0 | 10.0 | 0.00 | 0.00 | 0.00 | 36 | 1012.0 |
| 20260505113547 | 61 | 222 | 2.0 | 10.0 | 0.00 | 0.00 | 0.00 | 38 | 1012.2 |
| 20260505113054 | 61 | 291 | 3.0 | 10.0 | 0.00 | 0.00 | 0.00 | 39 | 1012.2 |
| 20260505112542 | 62 | 243 | 3.0 | 10.0 | 0.00 | 0.00 | 0.00 | 35 | 1012.2 |
| 20260505112042 | 62 | 230 | 2.0 | 8.0 | 0.00 | 0.00 | 0.00 | 38 | 1012.3 |
| 20260505111552 | 62 | 299 | 3.0 | 9.0 | 0.00 | 0.00 | 0.00 | 37 | 1012.3 |
| 20260505111042 | 61 | 303 | 2.0 | 9.0 | 0.00 | 0.00 | 0.00 | 39 | 1012.4 |
| 20260505110542 | 60 | 160 | 3.0 | 9.0 | 0.00 | 0.00 | 0.00 | 41 | 1012.4 |
| 20260505102045 | 62 | 219 | 3.0 | 8.0 | 0.00 | 0.00 | 0.00 | 41 | 1012.8 |
| 20260505101553 | 61 | 213 | 1.0 | 7.0 | 0.00 | 0.00 | 0.00 | 42 | 1012.8 |
| 20260505101042 | 61 | 193 | 2.0 | 9.0 | 0.00 | 0.00 | 0.00 | 42 | 1012.8 |
| 20260505100545 | 58 | 182 | 4.0 | 9.0 | 0.00 | 0.00 | 0.00 | 44 | 1012.8 |
| 20260505100056 | 61 | 211 | 1.0 | 5.0 | 0.00 | 0.00 | 0.00 | 41 | 1012.8 |
| 20260505095545 | 60 | 25 | 2.0 | 8.0 | 0.00 | 0.00 | 0.00 | 43 | 1012.9 |
| 20260505095042 | 60 | 260 | 1.0 | 8.0 | 0.00 | 0.00 | 0.00 | 43 | 1012.7 |
| 20260505094549 | 60 | 0 | 0.0 | 4.0 | 0.00 | 0.00 | 0.00 | 43 | 1012.5 |
| 20260505094045 | 60 | 22 | 0.0 | 4.0 | 0.00 | 0.00 | 0.00 | 42 | 1012.4 |
| 20260505093542 | 59 | 351 | 0.0 | 8.0 | 0.00 | 0.00 | 0.00 | 44 | 1012.5 |
| 20260505093048 | 58 | 208 | 1.0 | 8.0 | 0.00 | 0.00 | 0.00 | 45 | 1012.5 |
| 20260505092542 | 58 | 0 | 1.0 | 6.0 | 0.00 | 0.00 | 0.00 | 44 | 1012.6 |
| 20260505092045 | 58 | 331 | 0.0 | 9.0 | 0.00 | 0.00 | 0.00 | 44 | 1012.6 |
| 20260505091616 | 58 | 309 | 3.0 | 9.0 | 0.00 | 0.00 | 0.00 | 44 | 1012.5 |
| 20260505091042 | 58 | 237 | 2.0 | 9.0 | 0.00 | 0.00 | 0.00 | 43 | 1012.5 |
| 20260505090542 | 58 | 247 | 1.0 | 6.0 | 0.00 | 0.00 | 0.00 | 43 | 1012.5 |
| 20260505090114 | 57 | 334 | 0.0 | 7.0 | 0.00 | 0.00 | 0.00 | 45 | 1012.5 |
| 20260505085547 | 58 | 316 | 2.0 | 8.0 | 0.00 | 0.00 | 0.00 | 44 | 1012.5 |
| 20260505085048 | 57 | 313 | 0.0 | 8.0 | 0.00 | 0.00 | 0.00 | 46 | 1012.5 |
| 20260505084612 | 57 | 245 | 1.0 | 5.0 | 0.00 | 0.00 | 0.00 | 48 | 1012.5 |
| 20260505084044 | 57 | 317 | 1.0 | 5.0 | 0.00 | 0.00 | 0.00 | 49 | 1012.5 |
| 20260505083546 | 57 | 313 | 1.0 | 5.0 | 0.00 | 0.00 | 0.00 | 50 | 1012.5 |
| 20260505083104 | 57 | 325 | 2.0 | 5.0 | 0.00 | 0.00 | 0.00 | 49 | 1012.5 |
| 20260505082546 | 57 | 0 | 0.0 | 5.0 | 0.00 | 0.00 | 0.00 | 49 | 1012.5 |
| 20260505082042 | 56 | 327 | 0.0 | 5.0 | 0.00 | 0.00 | 0.00 | 51 | 1012.6 |
| 20260505081602 | 55 | 287 | 1.0 | 5.0 | 0.00 | 0.00 | 0.00 | 52 | 1012.5 |
| 20260505081043 | 55 | 0 | 1.0 | 4.0 | 0.00 | 0.00 | 0.00 | 53 | 1012.6 |
| 20260505080544 | 55 | 234 | 0.0 | 5.0 | 0.00 | 0.00 | 0.00 | 53 | 1012.6 |
| 20260505080059 | 55 | 327 | 0.0 | 5.0 | 0.00 | 0.00 | 0.00 | 54 | 1012.6 |
| 20260505075542 | 55 | 309 | 1.0 | 5.0 | 0.00 | 0.00 | 0.00 | 54 | 1012.5 |
| 20260505075045 | 54 | 0 | 1.0 | 4.0 | 0.00 | 0.00 | 0.00 | 55 | 1012.6 |
| 20260505074550 | 54 | 222 | 1.0 | 4.0 | 0.00 | 0.00 | 0.00 | 55 | 1012.6 |
| 20260505074045 | 55 | 319 | 1.0 | 4.0 | 0.00 | 0.00 | 0.00 | 55 | 1012.6 |
| 20260505073541 | 55 | 320 | 0.0 | 4.0 | 0.00 | 0.00 | 0.00 | 55 | 1012.5 |
| 20260505073055 | 55 | 230 | 0.0 | 4.0 | 0.00 | 0.00 | 0.00 | 53 | 1012.5 |
| 20260505072545 | 55 | 0 | 0.0 | 3.0 | 0.00 | 0.00 | 0.00 | 54 | 1012.5 |
| 20260505072042 | 55 | 0 | 0.0 | 3.0 | 0.00 | 0.00 | 0.00 | 54 | 1012.4 |
| 20260505071610 | 55 | 276 | 0.0 | 2.0 | 0.00 | 0.00 | 0.00 | 53 | 1012.4 |
| 20260505071047 | 55 | 0 | 0.0 | 2.0 | 0.00 | 0.00 | 0.00 | 53 | 1012.4 |
| 20260505070542 | 54 | 0 | 0.0 | 3.0 | 0.00 | 0.00 | 0.00 | 56 | 1012.4 |
| 20260505070054 | 53 | 291 | 0.0 | 4.0 | 0.00 | 0.00 | 0.00 | 57 | 1012.4 |
| 20260505065544 | 53 | 303 | 0.0 | 4.0 | 0.00 | 0.00 | 0.00 | 57 | 1012.3 |
| 20260505065041 | 53 | 249 | 1.0 | 4.0 | 0.00 | 0.00 | 0.00 | 56 | 1012.3 |
| 20260505064550 | 52 | 0 | 0.0 | 3.0 | 0.00 | 0.00 | 0.00 | 59 | 1012.3 |
| 20260505064042 | 52 | 302 | 0.0 | 3.0 | 0.00 | 0.00 | 0.00 | 59 | 1012.2 |
| 20260505063545 | 52 | 290 | 0.0 | 3.0 | 0.00 | 0.00 | 0.00 | 59 | 1012.2 |
| 20260505063055 | 52 | 281 | 0.0 | 4.0 | 0.00 | 0.00 | 0.00 | 60 | 1012.3 |
| 20260505062548 | 51 | 0 | 1.0 | 4.0 | 0.00 | 0.00 | 0.00 | 59 | 1012.2 |
| 20260505062046 | 51 | 307 | 0.0 | 3.0 | 0.00 | 0.00 | 0.00 | 59 | 1012.2 |
| 20260505061557 | 51 | 309 | 0.0 | 3.0 | 0.00 | 0.00 | 0.00 | 59 | 1012.3 |
| 20260505061047 | 51 | 0 | 0.0 | 5.0 | 0.00 | 0.00 | 0.00 | 60 | 1012.3 |
| 20260505060545 | 51 | 315 | 1.0 | 5.0 | 0.00 | 0.00 | 0.00 | 60 | 1012.3 |
| 20260505055545 | 51 | 294 | 1.0 | 6.0 | 0.00 | 0.00 | 0.00 | 61 | 1012.3 |
| 20260505055050 | 51 | 311 | 1.0 | 6.0 | 0.00 | 0.00 | 0.00 | 60 | 1012.2 |
| 20260505054557 | 51 | 0 | 0.0 | 6.0 | 0.00 | 0.00 | 0.00 | 61 | 1012.2 |
| 20260505054047 | 51 | 331 | 1.0 | 6.0 | 0.00 | 0.00 | 0.00 | 60 | 1012.2 |
| 20260505053545 | 51 | 0 | 0.0 | 5.0 | 0.00 | 0.00 | 0.00 | 61 | 1012.1 |
| 20260505053059 | 51 | 293 | 2.0 | 5.0 | 0.00 | 0.00 | 0.00 | 61 | 1012.2 |
| 20260505052545 | 51 | 290 | 0.0 | 4.0 | 0.00 | 0.00 | 0.00 | 61 | 1012.1 |
| 20260505052048 | 51 | 255 | 1.0 | 5.0 | 0.00 | 0.00 | 0.00 | 61 | 1012.1 |
| 20260505051553 | 51 | 296 | 1.0 | 5.0 | 0.00 | 0.00 | 0.00 | 61 | 1012.0 |
| 20260505051045 | 52 | 306 | 2.0 | 5.0 | 0.00 | 0.00 | 0.00 | 61 | 1012.1 |
| 20260505050546 | 52 | 312 | 0.0 | 2.0 | 0.00 | 0.00 | 0.00 | 61 | 1011.9 |
| 20260505041555 | 51 | 0 | 0.0 | 3.0 | 0.00 | 0.00 | 0.00 | 63 | 1012.0 |
| 20260505041045 | 51 | 0 | 0.0 | 3.0 | 0.00 | 0.00 | 0.00 | 63 | 1012.0 |
| 20260505040545 | 51 | 0 | 0.0 | 4.0 | 0.00 | 0.00 | 0.00 | 63 | 1012.0 |
| 20260505040056 | 51 | 320 | 0.0 | 4.0 | 0.00 | 0.00 | 0.00 | 63 | 1012.0 |
| 20260505035544 | 51 | 309 | 0.0 | 3.0 | 0.00 | 0.00 | 0.00 | 63 | 1012.0 |
| 20260505035048 | 51 | 0 | 1.0 | 3.0 | 0.00 | 0.00 | 0.00 | 62 | 1012.0 |
| 20260505034553 | 52 | 298 | 0.0 | 3.0 | 0.00 | 0.00 | 0.00 | 62 | 1012.0 |
| 20260505034048 | 52 | 296 | 0.0 | 4.0 | 0.00 | 0.00 | 0.00 | 62 | 1011.9 |
| 20260505033547 | 52 | 0 | 1.0 | 4.0 | 0.00 | 0.00 | 0.00 | 61 | 1012.0 |
| 20260505033054 | 52 | 240 | 1.0 | 3.0 | 0.00 | 0.00 | 0.00 | 61 | 1011.9 |
| 20260505032544 | 52 | 0 | 0.0 | 3.0 | 0.00 | 0.00 | 0.00 | 60 | 1012.0 |
| 20260505032043 | 52 | 0 | 1.0 | 3.0 | 0.00 | 0.00 | 0.00 | 60 | 1011.9 |
| 20260505031553 | 53 | 322 | 1.0 | 3.0 | 0.00 | 0.00 | 0.00 | 59 | 1012.0 |
| 20260505031042 | 53 | 0 | 0.0 | 3.0 | 0.00 | 0.00 | 0.00 | 58 | 1011.9 |
| 20260505030542 | 53 | 306 | 0.0 | 7.0 | 0.00 | 0.00 | 0.00 | 57 | 1012.0 |
| 20260505030109 | 53 | 322 | 1.0 | 10.0 | 0.00 | 0.00 | 0.00 | 57 | 1012.0 |
| 20260505025544 | 53 | 0 | 3.0 | 10.0 | 0.00 | 0.00 | 0.00 | 58 | 1011.9 |
| 20260505025043 | 53 | 351 | 4.0 | 8.0 | 0.00 | 0.00 | 0.00 | 60 | 1011.9 |
| 20260505024558 | 53 | 324 | 2.0 | 11.0 | 0.00 | 0.00 | 0.00 | 60 | 1012.0 |
| 20260505024047 | 53 | 305 | 3.0 | 11.0 | 0.00 | 0.00 | 0.00 | 60 | 1012.1 |
| 20260505023544 | 52 | 317 | 5.0 | 11.0 | 0.00 | 0.00 | 0.00 | 59 | 1012.1 |
| 20260505023055 | 53 | 292 | 2.0 | 8.0 | 0.00 | 0.00 | 0.00 | 60 | 1012.2 |
| 20260505022544 | 53 | 305 | 2.0 | 8.0 | 0.00 | 0.00 | 0.00 | 59 | 1012.3 |
| 20260505022045 | 53 | 0 | 2.0 | 7.0 | 0.00 | 0.00 | 0.00 | 59 | 1012.3 |
| 20260505021554 | 53 | 293 | 1.0 | 7.0 | 0.00 | 0.00 | 0.00 | 59 | 1012.3 |
| 20260505021044 | 53 | 306 | 2.0 | 8.0 | 0.00 | 0.00 | 0.00 | 59 | 1012.3 |
| 20260505020544 | 53 | 311 | 2.0 | 8.0 | 0.00 | 0.00 | 0.00 | 59 | 1012.4 |
| 20260505020054 | 53 | 328 | 1.0 | 6.0 | 0.00 | 0.00 | 0.00 | 59 | 1012.4 |
| 20260505015543 | 53 | 265 | 1.0 | 6.0 | 0.00 | 0.00 | 0.00 | 59 | 1012.5 |
| 20260505015044 | 53 | 307 | 1.0 | 6.0 | 0.00 | 0.00 | 0.00 | 59 | 1012.5 |
| 20260505014607 | 53 | 324 | 1.0 | 7.0 | 0.00 | 0.00 | 0.00 | 59 | 1012.5 |
| 20260505014043 | 53 | 0 | 2.0 | 8.0 | 0.00 | 0.00 | 0.00 | 59 | 1012.5 |
| 20260505013544 | 53 | 311 | 3.0 | 8.0 | 0.00 | 0.00 | 0.00 | 59 | 1012.5 |
| 20260505013056 | 53 | 356 | 2.0 | 5.0 | 0.00 | 0.00 | 0.00 | 59 | 1012.5 |
| 20260505012544 | 53 | 298 | 1.0 | 9.0 | 0.00 | 0.00 | 0.00 | 59 | 1012.5 |
| 20260505012044 | 53 | 193 | 2.0 | 9.0 | 0.00 | 0.00 | 0.00 | 59 | 1012.5 |
| 20260505011555 | 53 | 311 | 2.0 | 9.0 | 0.00 | 0.00 | 0.00 | 59 | 1012.5 |
| 20260505011047 | 53 | 307 | 2.0 | 9.0 | 0.00 | 0.00 | 0.00 | 59 | 1012.6 |
| 20260505010544 | 53 | 238 | 2.0 | 10.0 | 0.00 | 0.00 | 0.00 | 59 | 1012.6 |
| 20260505010058 | 53 | 217 | 3.0 | 11.0 | 0.00 | 0.00 | 0.00 | 59 | 1012.7 |
| 20260505005547 | 53 | 326 | 4.0 | 11.0 | 0.00 | 0.00 | 0.00 | 58 | 1012.7 |
| 20260505005045 | 53 | 316 | 3.0 | 11.0 | 0.00 | 0.00 | 0.00 | 58 | 1012.8 |
| 20260505004553 | 54 | 292 | 3.0 | 11.0 | 0.00 | 0.00 | 0.00 | 58 | 1012.8 |
| 20260505004043 | 54 | 216 | 2.0 | 11.0 | 0.00 | 0.00 | 0.00 | 57 | 1012.7 |
| 20260505003544 | 54 | 297 | 3.0 | 11.0 | 0.00 | 0.00 | 0.00 | 57 | 1012.9 |
| 20260505003059 | 54 | 293 | 3.0 | 10.0 | 0.00 | 0.00 | 0.00 | 57 | 1012.8 |
| 20260505002544 | 54 | 224 | 1.0 | 12.0 | 0.00 | 0.00 | 0.00 | 57 | 1012.9 |
| 20260505002044 | 54 | 311 | 1.0 | 12.0 | 0.00 | 0.00 | 0.00 | 57 | 1012.9 |
| 20260505001931 | 54 | 320 | 1.0 | 12.0 | 0.00 | 0.00 | 0.00 | 57 | 1012.9 |
| 20260505001815 | 54 | 320 | 1.0 | 12.0 | 0.00 | 0.00 | 0.00 | 57 | 1012.9 |
| 20260505001044 | 54 | 26 | 2.0 | 12.0 | 0.00 | 0.00 | 0.00 | 58 | 1012.9 |
| 20260505000544 | 54 | 289 | 3.0 | 9.0 | 0.00 | 0.00 | 0.00 | 58 | 1013.0 |
| 20260504235547 | 55 | 290 | 3.0 | 11.0 | 0.00 | 0.00 | 0.00 | 57 | 1013.0 |